TimeEST,TemperatureF,Dew PointF,Humidity,Sea Level PressureIn,VisibilityMPH,Wind Direction,Wind SpeedMPH,Gust SpeedMPH,PrecipitationIn,Events,Conditions,WindDirDegrees,DateUTC
12:56 AM,25.2,21.0,84,30.34,7.0,East,10.4,-,N/A,,Clear,90,2012-12-06 05:56:00
1:56 AM,26.1,21.0,81,30.32,7.0,East,11.5,-,N/A,,Clear,100,2012-12-06 06:56:00
2:56 AM,26.1,21.0,81,30.30,7.0,ESE,10.4,-,N/A,,Clear,110,2012-12-06 07:56:00
3:56 AM,25.2,20.1,81,30.29,7.0,ESE,10.4,-,N/A,,Clear,110,2012-12-06 08:56:00
4:56 AM,24.1,20.1,85,30.28,7.0,East,10.4,-,N/A,,Clear,100,2012-12-06 09:56:00
5:56 AM,24.1,20.1,85,30.27,7.0,East,10.4,-,N/A,,Clear,90,2012-12-06 10:56:00
6:56 AM,25.2,19.0,78,30.26,7.0,East,12.7,-,N/A,,Clear,90,2012-12-06 11:56:00
7:56 AM,25.2,20.1,81,30.26,6.0,East,10.4,-,N/A,,Haze,90,2012-12-06 12:56:00
8:56 AM,28.0,21.0,75,30.26,6.0,ESE,9.2,-,N/A,,Haze,120,2012-12-06 13:56:00
9:56 AM,31.1,24.1,75,30.24,6.0,SE,10.4,-,N/A,,Haze,140,2012-12-06 14:56:00
10:56 AM,32.9,26.1,76,30.23,6.0,SSE,8.1,-,N/A,,Haze,150,2012-12-06 15:56:00
11:56 AM,36.0,28.0,73,30.19,6.0,East,4.6,-,N/A,,Haze,100,2012-12-06 16:56:00
12:56 PM,37.9,29.1,71,30.15,6.0,SSE,8.1,-,N/A,,Haze,150,2012-12-06 17:56:00
1:56 PM,38.8,30.0,71,30.12,6.0,SE,6.9,-,N/A,,Haze,140,2012-12-06 18:56:00
2:56 PM,39.9,32.0,73,30.09,6.0,SE,10.4,-,N/A,,Haze,140,2012-12-06 19:56:00
3:56 PM,39.9,32.0,73,30.09,6.0,SE,5.8,-,N/A,,Haze,130,2012-12-06 20:56:00
4:56 PM,37.9,32.0,79,30.09,6.0,SE,4.6,-,N/A,,Haze,130,2012-12-06 21:56:00
5:56 PM,38.8,32.9,79,30.08,7.0,SE,5.8,-,N/A,,Mostly Cloudy,140,2012-12-06 22:56:00
6:56 PM,38.8,34.0,83,30.08,7.0,SE,3.5,-,N/A,,Overcast,130,2012-12-06 23:56:00
7:56 PM,39.9,34.9,82,30.06,7.0,East,5.8,-,N/A,,Overcast,90,2012-12-07 00:56:00
8:56 PM,41.0,34.0,76,30.05,5.0,SSE,6.9,-,0.00,Rain,Light Rain,160,2012-12-07 01:56:00
9:04 PM,41.0,35.6,81,30.02,3.0,SSE,6.9,-,0.00,Rain,Light Rain,160,2012-12-07 02:04:00
9:16 PM,39.2,35.6,87,30.02,2.0,South,6.9,-,0.01,Rain,Light Rain,170,2012-12-07 02:16:00
9:28 PM,39.2,35.6,87,30.02,4.0,SSE,4.6,-,0.02,Rain,Light Rain,160,2012-12-07 02:28:00
9:42 PM,41.0,37.4,87,30.02,6.0,South,3.5,-,0.02,,Overcast,170,2012-12-07 02:42:00
9:56 PM,41.0,36.9,85,30.04,7.0,SSE,4.6,-,0.02,,Overcast,150,2012-12-07 02:56:00
10:16 PM,41.0,37.4,87,30.01,6.0,SSE,5.8,-,N/A,,Overcast,150,2012-12-07 03:16:00
10:45 PM,41.0,39.2,93,30.00,2.5,SSE,6.9,-,0.01,Rain,Light Rain,150,2012-12-07 03:45:00
10:56 PM,41.0,38.8,92,30.02,3.0,SSE,6.9,-,0.01,Rain,Light Rain,160,2012-12-07 03:56:00
11:56 PM,41.9,39.9,93,30.01,2.0,SSE,4.6,-,0.03,Rain,Rain,150,2012-12-07 04:56:00